軌道要素
Epoch 2012 Nov. 9.0 TT = JDT 2456240.5
T 2012 Nov. 28.68818 TT MPC
q 1.1417940 (2000.0) P Q
z +0.0013301 Peri. 139.29062 -0.15109435 -0.06527492
Node 279.03904 +0.42305020 +0.89755354
e 0.9984813 Incl. 92.84785 +0.89341985 -0.43604681
From 4218 observations 2012 May 6-2013 Apr. 14, mean residual 0".6.
Nongravitational parameters A1 = +1.50, A2 = -0.2496.
|